Flag Weather past 2 weeks in Madrid, Spain

Now
47 °F

Overcast.


Feels Like: 46 °F
Forecast: 54 / 64 °F
Wind: 3 mph from North

Location: Madrid / Barajas

Current Time: Nov 22, 2014 at 4:13:04 AM

Latest Report: Nov 22, 2014 at 3:00 AM


Visibility: 8 mi

Pressure: 30.06 "Hg

Humidity: 93%

Dew point: 46 °F

Location of MadridLocation

Historic Weather in Madrid — Graph

°F

Madrid temperature yesterday

Maximum temperature yesterday: 61 °F (at 3:00 PM)
Minimum temperature yesterday: 41 °F (at 8:00 AM)
Average temperature yesterday: 51 °F

Past Weeks' High & Low Weather Summary

 TemperatureHumidityPressure
High70 °F (Nov 20, 4:00 PM)97% (Nov 11, 9:00 AM)30.15 "Hg (Nov 11, 9:00 AM)
Low32 °F (Nov 10, 8:00 AM)44% (Nov 20, 4:00 PM)29.59 "Hg (Nov 11, 2:00 PM)
Average50 °F80%29.92 "Hg
* Reported Nov 7 2:00 AM — Nov 22 2:00 AM, Madrid, Weather by CustomWeather, © 2014

Note: Actual official high and low records may vary slightly from our data, if they occured in-between our weather recording intervals... More about our weather records

Advertising

Madrid weather history for previous 24 hours

 ConditionsComfort  
Time TempWeatherWind HumidityBarometerVisibility
2:00 AM
Nov 22
47 °FPassing clouds.5 mph93%30.06 "Hg6 mi
1:00 AM49 °FOvercast.5 mph92%30.07 "Hg9 mi
12:00 AM49 °FOvercast.5 mph91%30.07 "Hg12 mi
11:00 PM
Nov 21
50 °FOvercast.5 mph90%30.08 "Hg7 mi
10:00 PM50 °FPassing clouds.8 mph90%30.07 "Hg9 mi
9:00 PM52 °FCool.5 mph87%30.05 "Hg9 mi
8:00 PM54 °FOvercast.1 mph85%30.03 "Hg19 mi
7:00 PM55 °FOvercast.6 mph82%30.02 "Hg12 mi
6:00 PM57 °FOvercast.6 mph77%30.00 "Hg12 mi
5:00 PM60 °FOvercast.3 mph74%29.99 "Hg12 mi
4:00 PM61 °FOvercast.No wind71%29.98 "Hg12 mi
3:00 PM61 °FOvercast.2 mph67%30.00 "Hg12 mi
2:00 PM60 °FOvercast.1 mph71%30.02 "Hg12 mi
1:00 PM57 °FOvercast.1 mph74%30.06 "Hg16 mi
12:00 PM55 °FPartly sunny.2 mph80%30.11 "Hg12 mi
11:00 AM51 °FCool.5 mph84%30.13 "Hg11 mi
10:00 AM46 °FOvercast.7 mph88%30.14 "Hg12 mi
9:00 AM43 °FOvercast.3 mph95%30.15 "Hg11 mi
8:00 AM41 °FPassing clouds.2 mph94%30.15 "Hg9 mi
7:00 AM43 °FPassing clouds.3 mph93%30.12 "Hg9 mi
6:00 AM44 °FClear.6 mph93%30.11 "Hg10 mi
5:00 AM45 °FClear.5 mph92%30.13 "Hg12 mi
4:00 AM45 °FCool.5 mph93%30.13 "Hg10 mi
Weather by CustomWeather, © 2014

See weather overviewHow to use our weather pages